Starlink 30957

operational
NORAD ID: 58453 Int'l Des: 2023-183 Owner: SPXS Country: US Constellation: starlink
LEOCIRCULAR

Über Starlink 30957

Beschreibung wird geladen...

Live-Position

3D-Globus wird geladen...

Nächste Überflüge

Höhenverlauf

Altitude vs Time

uPlot chart will show altitude changes over time

Zweizeiliger Elementsatz

1 58453U 23183S 25258.40500276 .00000284 00000-0 36105-4 0 9991
2 58453 43.0020 276.0453 0001509 290.1222 69.9458 15.02550064100343
Epoch: 15. Sept. 2025 • Age: 18 hours

Aktueller Status

Höhe 559.2 km
Geschwindigkeit 7.58 km/s
Subsatellitenpunkt 0.99°N, 34.56°E
Startdatum 28. Nov. 2023
Alter 1.7 years
Typ internet

Technische Details

Klassifizierung Payload
Masse 730.00 kg
Trockenmasse 700.00 kg
Gesamtmasse 730.00 kg
Länge 0.30 m
Durchmesser 4.10 m
Spannweite 29.00 m
Form Box + pan
Hersteller SPXS
Bus-Typ Starlink V2M
Phasenstatus In Orbit
Besitzer/Staat SPXS/US

Große Konstellationen

Loading constellations...